Flag for France Weather past 2 weeks in Auxerre, France

Now
52 °F

Light rain. Fog.


Feels Like: 47 °F
Forecast: 52 / 56 °F
Wind: 13 mph from Southwest

Location: Troyes Airport

Current Time: Mar 29, 2015 at 3:14:59 AM

Latest Report: Mar 29, 2015 at 1:30 AM


Visibility: 1 mi

Pressure: 30.04 "Hg

Humidity: 88%

Dew point: 48 °F

Location of AuxerreLocation

Historic Weather in Auxerre — Graph

°F

Auxerre temperature yesterday

Maximum temperature yesterday: 57 °F (at 4:30 PM)
Minimum temperature yesterday: 37 °F (at 1:00 AM)
Average temperature yesterday: 47 °F

Past Weeks' High & Low Weather Summary

 TemperatureHumidityPressure
High66 °F (Mar 18, 3:00 PM)100% (Mar 16, 4:30 AM)30.33 "Hg (Mar 16, 4:30 AM)
Low27 °F (Mar 14, 6:00 AM)40% (Mar 17, 3:30 PM)29.68 "Hg (Mar 24, 4:30 PM)
Average44 °F77%30.08 "Hg
* Reported Mar 14 1:00 AM — Mar 29 1:00 AM, Auxerre, Weather by CustomWeather, © 2015

Note: Actual official high and low records may vary slightly from our data, if they occured in-between our weather recording intervals... More about our weather records

Advertising

Auxerre weather history for previous 24 hours

 ConditionsComfort  
Time TempWeatherWind HumidityBarometerVisibility
1:00 AM
Sun, Mar 29
52 °FLight rain. Mostly cloudy.13 mph88%30.01 "HgN/A
12:30 AM52 °FMostly cloudy.15 mph88%30.04 "Hg6 mi
12:00 AM52 °FMostly cloudy.14 mph88%30.04 "HgN/A
11:30 PM
Sat, Mar 28
52 °FLight rain. Passing clouds.16 mph88%30.04 "HgN/A
11:00 PM54 °FPassing clouds.20 mph77%30.04 "HgN/A
10:30 PM54 °FMostly cloudy.20 mph77%30.01 "HgN/A
10:00 PM55 °FClear.20 mph77%30.04 "HgN/A
9:30 PM54 °FClear.10 mph88%30.04 "HgN/A
9:00 PM52 °FOvercast.3 mph94%30.04 "HgN/A
8:30 PM52 °FPartly cloudy.5 mph94%30.04 "HgN/A
8:00 PM50 °FClear.6 mph94%30.07 "HgN/A
7:30 PM50 °FClear.8 mph94%30.07 "HgN/A
7:00 PM55 °FPartly sunny.10 mph82%30.07 "HgN/A
6:30 PM55 °FMore clouds than sun.8 mph88%30.07 "HgN/A
6:00 PM55 °FMostly cloudy.13 mph88%30.07 "HgN/A
5:30 PM55 °FPartly sunny.13 mph88%30.07 "HgN/A
5:00 PM55 °FPassing clouds.14 mph88%30.07 "HgN/A
4:30 PM57 °FMostly cloudy.15 mph82%30.07 "HgN/A
4:00 PM55 °FBroken clouds.13 mph88%30.09 "HgN/A
3:30 PM55 °FPartly sunny.14 mph88%30.09 "HgN/A
3:00 PM54 °FLow clouds.13 mph94%30.09 "HgN/A
2:30 PM52 °FLow clouds.12 mph94%30.12 "HgN/A
2:00 PM52 °FMostly cloudy.9 mph94%30.12 "HgN/A
1:30 PM50 °FLow clouds.10 mph94%30.12 "HgN/A
1:00 PM50 °FLow clouds.8 mph94%30.12 "HgN/A
12:30 PM50 °FLow clouds.9 mph88%30.12 "Hg4 mi
12:00 PM48 °FFog.10 mph94%30.15 "Hg2 mi
11:30 AM48 °FDrizzle. Fog.10 mph94%30.15 "Hg2 mi
11:00 AM46 °FLow clouds.10 mph93%30.15 "Hg4 mi
10:30 AM46 °FLight rain. Low clouds.10 mph93%30.15 "Hg4 mi
10:00 AM45 °FDrizzle. Overcast.12 mph93%30.15 "HgN/A
9:30 AM45 °FLight rain. Overcast.9 mph93%30.18 "Hg4 mi
9:00 AM45 °FDrizzle. Mostly cloudy.7 mph93%30.18 "Hg4 mi
8:30 AM45 °FDrizzle. Broken clouds.7 mph87%30.18 "HgN/A
8:00 AM45 °FMore clouds than sun.10 mph81%30.18 "HgN/A
7:30 AM43 °FOvercast.7 mph87%30.18 "HgN/A
7:00 AM43 °FOvercast.6 mph81%30.18 "HgN/A
6:30 AM41 °FOvercast.8 mph87%30.18 "HgN/A
6:00 AM41 °FPassing clouds.6 mph87%30.21 "HgN/A
5:30 AM41 °FMostly cloudy.6 mph81%30.21 "HgN/A
5:00 AM39 °FClear.3 mph87%30.21 "HgN/A
4:30 AM39 °FClear.3 mph87%30.21 "HgN/A
4:00 AM39 °FClear.5 mph87%30.21 "HgN/A
3:30 AM39 °FClear.3 mph81%30.24 "HgN/A
3:00 AM39 °FClear.3 mph81%30.24 "HgN/A
Weather by CustomWeather, © 2015

See weather overviewHow to use our weather pages